Location: Marcé
(47.5801°N, 0.3280°W)
Time: 10:55:28
(UTC+01:00)

BlueWalker 3 - Pass Details

Date: 09 December 2022
Orbit: 499 x 517 km, 53.2° (Epoch: 29 January)

Event Time Altitude Azimuth Distance (km) Brightness Sun altitude
Rises 18:03:01 0° 297° (WNW) 2,635 6.2 -8.6°
Reaches altitude 10° 18:05:15 10° 301° (WNW) 1,742 5.2 -9.0°
Maximum altitude 18:09:09 60° 22° (NNE) 590 2.0 -9.6°
Drops below altitude 10° 18:13:01 10° 103° (ESE) 1,723 4.2 -10.2°
Enters shadow 18:13:13 - 104° (ESE) 1,803 4.3 -10.2°
